Location: Lafig�re
(44.4503°N, 4.0357°E)
Time: 00:29:52
(UTC+00:00)

Transit 4A - Pass Details

Date: 28 January 2021
Orbit: 866 x 979 km, 66.8° (Epoch: 24 February)

Event Time Altitude Azimuth Distance (km) Brightness Sun altitude
Rises 20:03:51 0° 267° (W) 3,677 12.0 -35.0°
Reaches altitude 10° 20:07:22 10° 286° (WNW) 2,728 11.1 -35.6°
Maximum altitude 20:11:35 18° 328° (NNW) 2,190 10.2 -36.3°
Enters shadow 20:13:55 15° 354° (N) 2,359 10.1 -36.7°
Drops below altitude 10° 20:15:48 10° 10° (N) 2,706 - -37.1°
Sets 20:19:17 0° 29° (NNE) 3,637 - -37.7°
